[[{"header":{"parameterUnit":"m.s-1","parameterCategory":1,"la1":30.2991,"la2":30.254,"lo1":-89.0895,"lo2":-89.0444,"dy":0.0017,"dx":0.0017,"nx":28,"ny":28,"refTime":"2023-10-02T21:00:00:Z","depth":0,"parameterNumber":2,"parameterNumberName":"U-component_of_WINDS"},"data":[0,0,0,0,0,0,0,0,0,0,0,0,0,0,0,0,0,0,0,0,0,0,0,0,0,0,0,0,0,0,0,0,0,0,0,0,0,0,0,0,0,0,0,0,0,0,0,0,0,0,0,0,0,0,0,0,0,0,-2.091,-2.091,0,-2.0925,-2.0925,-2.0925,-2.0799,-2.0796,-2.0792,-2.0789,-2.0812,-2.0816,-2.082,0,0,0,0,0,0,0,0,0,0,0,0,0,-2.0778,-2.0782,-2.091,-2.091,-2.091,-2.0925,-2.0925,-2.0925,-2.08,-2.0795,-2.0791,-2.0787,-2.0811,-2.0815,-2.082,0,0,0,0,0,0,0,0,0,0,0,0,0,-2.0819,-2.0783,-2.091,-2.0849,-2.0844,-2.0925,-2.0925,-2.0925,-2.0801,-2.0795,-2.079,-2.0785,-2.0809,-2.0815,-2.0821,-2.0963,0,0,-2.0838,-2.0841,0,0,0,0,0,0,0,0,-2.0817,-2.0824,-2.0858,-2.0853,-2.0848,-2.0854,-2.0887,-2.0938,-2.0802,-2.0817,-2.0789,-2.0783,-2.0831,-2.0835,-2.0849,-2.0964,-2.0965,-2.0839,-2.0843,-2.0845,-2.0847,0,0,0,0,0,0,0,-2.0814,-2.0823,-2.0916,-2.0859,-2.0852,-2.0823,-2.0823,-2.0896,-2.0854,-2.0816,-2.0806,-2.081,-2.0827,-2.0844,-2.0849,-2.0965,-2.0839,-2.0844,-2.0848,-2.085,-2.1197,-2.1202,0,0,0,0,0,0,-2.0819,-2.0821,-2.0915,-2.0916,-2.0819,-2.083,-2.083,-2.0858,-2.0853,-2.0847,-2.0814,-2.0804,-2.0836,-2.0842,-2.0849,-2.1016,-2.0845,-2.085,-2.0854,-2.1191,-2.1198,-2.1204,0,0,0,0,0,0,-2.0816,-2.0828,-2.0915,-2.0866,-2.0875,-2.0838,-2.087,-2.0861,-2.0877,-2.0851,-2.0844,-2.0839,-2.0833,-2.0841,-2.0935,-2.1015,-2.0853,-2.0858,-2.1184,-2.1193,-2.1201,-2.135,0,0,0,0,0,0,-2.0813,-2.0828,-2.0881,-2.0868,-2.0878,-2.0999,-2.0875,-2.0865,-2.0887,-2.0873,-2.0872,-2.0867,-2.0829,-2.0927,-2.0941,-2.102,-2.0863,-2.1177,-2.1188,-2.1198,-2.1338,-2.1363,-2.1384,0,0,0,0,0,-2.0809,-2.0924,-2.0884,-2.0896,-2.0942,-2.1004,-2.1009,-2.0961,-2.0894,-2.0947,-2.093,-2.0867,-2.1003,-2.0937,-2.0952,-2.1034,-2.1172,-2.1185,-2.1198,-2.1328,-2.1358,-2.1383,0,0,0,0,0,0,-2.095,-2.0921,-2.0877,-2.099,-2.1,-2.0982,-2.1048,-2.0994,-2.1026,-2.1012,-2.0952,-2.0953,-2.1058,-2.1055,-2.0982,-2.1171,-2.1076,-2.1093,-2.117,-2.1198,-2.1221,-2.1221,-2.0868,0,0,0,0,0,-2.0993,-2.1043,-2.1016,-2.1119,-2.1126,-2.1087,-2.1111,-2.1073,-2.1082,-2.1086,-2.1076,-2.1089,-2.1134,-2.1166,-2.1206,-2.1336,-2.1335,-2.14,-2.1422,-2.1441,-2.1458,-2.1527,-2.1556,-2.1246,-2.1246,-2.1246,0,0,-2.1085,-2.1076,-2.1112,-2.1147,-2.115,-2.1206,-2.1091,-2.1154,-2.1195,-2.1096,-2.1184,-2.1177,-2.1187,-2.13,-2.1349,-2.1301,-2.1542,-2.1458,-2.1473,-2.1479,-2.1543,-2.1572,-2.1599,-2.1255,-2.1254,-2.1252,0,0,-2.1281,-2.1278,-2.1364,-2.1368,-2.1373,-2.1346,-2.1366,-2.1356,-2.1347,-2.1433,-2.136,-2.1408,-2.1487,-2.1498,-2.1514,-2.1712,-2.1656,-2.1727,-2.1848,-2.1916,-2.1941,-2.1962,-2.2035,-2.2061,-2.1742,-2.1742,-2.1742,0,-2.1396,-2.1474,-2.1416,-2.1483,-2.1502,-2.1411,-2.1498,-2.1506,-2.1526,-2.1541,-2.1486,-2.1583,-2.1583,-2.1698,-2.1746,-2.1761,-2.1784,-2.1728,-2.1941,-2.1962,-2.1982,-2.205,-2.2077,-2.1751,-2.175,-2.1749,-2.1748,0,-2.1616,-2.1671,-2.174,-2.1758,-2.1783,-2.1861,-2.1816,-2.1849,-2.1808,-2.1787,-2.1876,-2.1873,-2.1911,-2.1935,-2.1896,-2.2044,-2.2014,-2.1951,-2.1855,-2.2021,-2.2084,-2.211,-2.1763,-2.176,-2.1758,-2.1756,0,0,-2.1905,-2.1886,-2.1913,-2.192,-2.1917,-2.196,-2.2033,-2.2068,-2.2099,-2.2114,-2.2176,-2.2244,-2.2185,-2.2203,-2.2164,-2.2224,-2.2383,-2.2153,-2.2153,-2.2198,-2.2547,-2.2597,-2.2628,-2.2344,-2.2349,-2.2352,-2.2547,0,-2.2097,-2.222,-2.2168,-2.2297,-2.2348,-2.2261,-2.2325,-2.2332,-2.2314,-2.2356,-2.2336,-2.2386,-2.2303,-2.2314,-2.2368,-2.2352,-2.2453,-2.2337,-2.2404,-2.2407,-2.2407,-2.2661,-2.2713,-2.2898,-2.2572,-2.2576,-2.2579,0,-2.2339,-2.2362,-2.2495,-2.2482,-2.2502,-2.256,-2.2588,-2.2628,-2.2634,-2.2616,-2.2636,-2.2583,-2.2656,-2.2558,-2.2659,-2.2581,-2.2605,-2.2601,-2.2607,-2.2614,-2.2505,-2.2677,-2.2955,-2.2984,-2.2617,-2.2614,-2.2611,0,-2.2539,-2.2602,-2.269,-2.2698,-2.2686,-2.2729,-2.2726,-2.2726,-2.275,-2.2774,-2.279,-2.2823,-2.2843,-2.287,-2.2829,-2.2761,-2.2937,-2.2835,-2.2928,-2.2929,-2.2971,-2.297,-2.326,-2.2983,-2.2982,-2.2982,-2.2981,0,-2.2761,-2.2847,-2.2779,-2.2834,-2.2927,-2.2867,-2.2962,-2.295,-2.295,-2.3003,-2.2929,-2.298,-2.2921,-2.2967,-2.2935,-2.3025,-2.3034,-2.3024,-2.3015,-2.3032,-2.3034,-2.3049,-2.3037,-2.2989,-2.2987,-2.2986,-2.2985,0,-2.3001,-2.2959,-2.305,-2.3029,-2.3026,-2.3096,-2.3079,-2.313,-2.3104,-2.3172,-2.3184,-2.3146,-2.3196,-2.3157,-2.3207,-2.3185,-2.3304,-2.3276,-2.3302,-2.3295,-2.3391,-2.3384,-2.3703,-2.3743,-2.3438,-2.3441,-2.3444,0,-2.3147,-2.321,-2.3196,-2.3224,-2.3225,-2.3271,-2.3294,-2.3237,-2.3265,-2.3275,-2.3325,-2.3368,-2.34,-2.3484,-2.3463,-2.3501,-2.3475,-2.3584,-2.348,-2.3495,-2.3479,-2.3477,-2.3484,-2.3606,-2.361,-2.3613,-2.3615,0,-2.3412,-2.3387,-2.3422,-2.345,-2.3478,-2.3498,-2.3512,-2.354,-2.3482,-2.3517,-2.3565,-2.359,-2.3638,-2.3683,-2.3713,-2.3712,-2.3656,-2.3647,-2.3671,-2.3691,-2.3704,-2.37,-2.3362,-2.3641,-2.3639,-2.3637,-2.3635,-2.3634,-2.3611,-2.3663,-2.366,-2.3701,-2.3705,-2.372,-2.3766,-2.3745,-2.3784,-2.3818,-2.3782,-2.3842,-2.3846,-2.3879,-2.3886,-2.3933,-2.3888,-2.3922,-2.3931,-2.3941,-2.3956,-2.3694,-2.3938,-2.3937,-2.3936,-2.3936,-2.3935,0,-2.3873,-2.3866,-2.3904,-2.3925,-2.3958,-2.3896,-2.3909,-2.3941,-2.3994,-2.4001,-2.4032,-2.4089,-2.4131,-2.4112,-2.4149,-2.4191,-2.4166,-2.4203,-2.4201,-2.4202,-2.3993,-2.3969,-2.4223,-2.4223,-2.4223,-2.4223,-2.4222,-2.4222,-2.4013,-2.4099,-2.4074,-2.4161,-2.4153,-2.4209,-2.4222,-2.4235,-2.424,-2.4306,-2.4339,-2.4325,-2.4322,-2.4359,-2.4395,-2.4389,-2.4407,-2.4455,-2.4439,-2.4245,-2.4217,-2.419,-2.4168,-2.4458,-2.4459,-2.4645,-2.4646,-2.4648]},{"header":{"parameterUnit":"m.s-1","parameterCategory":1,"la1":30.2991,"la2":30.254,"lo1":-89.0895,"lo2":-89.0444,"dy":0.0017,"dx":0.0017,"nx":28,"ny":28,"refTime":"2023-10-02T21:00:00:Z","depth":0,"parameterNumber":3,"parameterNumberName":"V-component_of_WINDS"},"data":[0,0,0,0,0,0,0,0,0,0,0,0,0,0,0,0,0,0,0,0,0,0,0,0,0,0,0,0,0,0,0,0,0,0,0,0,0,0,0,0,0,0,0,0,0,0,0,0,0,0,0,0,0,0,0,0,0,0,-2.3114,-2.3115,0,-2.3205,-2.3206,-2.3207,-2.3229,-2.3228,-2.3227,-2.3227,-2.3315,-2.3318,-2.3321,0,0,0,0,0,0,0,0,0,0,0,0,0,-2.2952,-2.2955,-2.3114,-2.3115,-2.3116,-2.3205,-2.3206,-2.3208,-2.3229,-2.3228,-2.3227,-2.3227,-2.3314,-2.3318,-2.3321,0,0,0,0,0,0,0,0,0,0,0,0,0,-2.3031,-2.2956,-2.3113,-2.3137,-2.3141,-2.3205,-2.3206,-2.3208,-2.3229,-2.3228,-2.3227,-2.3226,-2.3313,-2.3317,-2.3322,-2.3367,0,0,-2.3335,-2.3337,0,0,0,0,0,0,0,0,-2.3026,-2.3037,-2.3133,-2.3136,-2.3139,-2.3205,-2.3182,-2.3261,-2.3229,-2.3195,-2.3227,-2.3226,-2.3279,-2.3286,-2.3305,-2.3371,-2.3375,-2.3335,-2.3338,-2.334,-2.3341,0,0,0,0,0,0,0,-2.3021,-2.3033,-2.315,-2.3134,-2.3138,-2.3142,-2.3152,-2.3197,-2.3241,-2.3198,-2.32,-2.3211,-2.328,-2.3301,-2.3307,-2.3376,-2.3335,-2.3339,-2.3342,-2.3344,-2.3484,-2.3485,0,0,0,0,0,0,-2.3012,-2.3028,-2.3147,-2.3153,-2.308,-2.3146,-2.3157,-2.3185,-2.324,-2.3248,-2.3211,-2.3211,-2.3294,-2.3302,-2.331,-2.3367,-2.334,-2.3344,-2.3347,-2.3483,-2.3484,-2.3485,0,0,0,0,0,0,-2.3008,-2.3022,-2.3143,-2.3091,-2.3107,-2.3149,-2.318,-2.3187,-2.3207,-2.3251,-2.3258,-2.3224,-2.3293,-2.3304,-2.3353,-2.337,-2.3346,-2.335,-2.3481,-2.3483,-2.3485,-2.348,0,0,0,0,0,0,-2.3004,-2.3021,-2.304,-2.3091,-2.3109,-2.3186,-2.3181,-2.3189,-2.3215,-2.3216,-2.3265,-2.3272,-2.3293,-2.3346,-2.3357,-2.3376,-2.3353,-2.348,-2.3482,-2.3484,-2.3479,-2.3482,-2.3484,0,0,0,0,0,-2.2998,-2.3034,-2.3041,-2.3055,-2.3134,-2.3187,-2.3197,-2.3223,-2.3217,-2.3235,-2.3263,-2.327,-2.3367,-2.3351,-2.3364,-2.3384,-2.3479,-2.3482,-2.3484,-2.3478,-2.3481,-2.3484,0,0,0,0,0,0,-2.2981,-2.3041,-2.3049,-2.3103,-2.314,-2.319,-2.3214,-2.3225,-2.3263,-2.3262,-2.329,-2.3301,-2.3348,-2.3371,-2.3353,-2.343,-2.3423,-2.3428,-2.3414,-2.3417,-2.3419,-2.3412,-2.3357,0,0,0,0,0,-2.2984,-2.3024,-2.3073,-2.3116,-2.3134,-2.3171,-2.3195,-2.3212,-2.325,-2.3265,-2.3297,-2.3332,-2.3371,-2.3395,-2.3433,-2.3483,-2.3493,-2.3503,-2.3505,-2.3507,-2.351,-2.3538,-2.3542,-2.3493,-2.3493,-2.3493,0,0,-2.299,-2.3027,-2.305,-2.3113,-2.3144,-2.3182,-2.3184,-2.3225,-2.3253,-2.3271,-2.3319,-2.3344,-2.3385,-2.3435,-2.3458,-2.3455,-2.3526,-2.351,-2.3511,-2.3514,-2.3541,-2.3545,-2.355,-2.3495,-2.3495,-2.3495,0,0,-2.302,-2.3053,-2.3092,-2.3123,-2.317,-2.3194,-2.3204,-2.3253,-2.327,-2.332,-2.3334,-2.3368,-2.3433,-2.3463,-2.3486,-2.3528,-2.3535,-2.3539,-2.3551,-2.3577,-2.3581,-2.3585,-2.3599,-2.3604,-2.3543,-2.3543,-2.3543,0,-2.302,-2.3081,-2.311,-2.3151,-2.3178,-2.3198,-2.3237,-2.3265,-2.3321,-2.3338,-2.3335,-2.3418,-2.3447,-2.3504,-2.3514,-2.3533,-2.3543,-2.3533,-2.3579,-2.3582,-2.3586,-2.36,-2.3605,-2.3543,-2.3543,-2.3543,-2.3543,0,-2.3079,-2.3121,-2.3146,-2.3202,-2.3232,-2.3271,-2.3305,-2.3332,-2.3346,-2.337,-2.342,-2.3457,-2.3502,-2.3517,-2.353,-2.3575,-2.3572,-2.3573,-2.3566,-2.359,-2.3604,-2.3609,-2.3543,-2.3543,-2.3543,-2.3543,0,0,-2.3099,-2.3172,-2.3181,-2.3206,-2.326,-2.3292,-2.3332,-2.3378,-2.34,-2.3438,-2.3471,-2.3527,-2.3529,-2.3556,-2.3573,-2.3596,-2.3626,-2.3595,-2.3596,-2.3598,-2.3677,-2.3674,-2.368,-2.3632,-2.3633,-2.3634,-2.3673,0,-2.3135,-2.321,-2.3237,-2.3297,-2.3336,-2.3356,-2.339,-2.3426,-2.345,-2.3485,-2.3511,-2.355,-2.355,-2.3566,-2.359,-2.3617,-2.3642,-2.3615,-2.3662,-2.3663,-2.365,-2.3687,-2.3685,-2.372,-2.3678,-2.3679,-2.368,0,-2.3187,-2.3228,-2.3292,-2.3341,-2.3358,-2.3389,-2.3434,-2.3468,-2.3508,-2.3524,-2.3554,-2.357,-2.3611,-2.3602,-2.3659,-2.364,-2.3661,-2.3677,-2.3679,-2.3683,-2.3672,-2.3692,-2.3732,-2.3736,-2.3688,-2.3688,-2.3687,0,-2.3195,-2.3265,-2.3313,-2.3334,-2.3393,-2.3414,-2.344,-2.348,-2.3506,-2.3544,-2.3561,-2.3603,-2.3626,-2.3658,-2.3684,-2.3675,-2.3738,-2.3731,-2.375,-2.375,-2.3762,-2.376,-2.3804,-2.3777,-2.3777,-2.3777,-2.3776,0,-2.3231,-2.3269,-2.3318,-2.3347,-2.339,-2.3421,-2.3462,-2.3488,-2.3524,-2.3557,-2.3577,-2.3607,-2.3641,-2.3675,-2.3696,-2.3739,-2.3749,-2.3762,-2.3767,-2.376,-2.3758,-2.3773,-2.3771,-2.3778,-2.3778,-2.3777,-2.3777,0,-2.3246,-2.328,-2.3334,-2.3386,-2.34,-2.3429,-2.3473,-2.3501,-2.3527,-2.3569,-2.358,-2.3619,-2.3661,-2.3691,-2.3744,-2.3758,-2.3804,-2.3809,-2.3791,-2.3793,-2.3811,-2.3808,-2.3865,-2.3873,-2.3841,-2.3841,-2.3841,0,-2.3267,-2.3297,-2.3353,-2.3378,-2.3404,-2.3443,-2.3471,-2.3502,-2.3529,-2.3579,-2.36,-2.3644,-2.368,-2.3746,-2.3778,-2.3819,-2.3824,-2.3841,-2.383,-2.3822,-2.3823,-2.3821,-2.3824,-2.3842,-2.3843,-2.3843,-2.3843,0,-2.33,-2.3315,-2.3355,-2.3401,-2.3433,-2.347,-2.3507,-2.3526,-2.3564,-2.3593,-2.3637,-2.3666,-2.3721,-2.3763,-2.3808,-2.3832,-2.3843,-2.3847,-2.3853,-2.3846,-2.3833,-2.3839,-2.3794,-2.3845,-2.3845,-2.3844,-2.3844,-2.3844,-2.3318,-2.3346,-2.339,-2.3433,-2.3465,-2.3499,-2.3528,-2.3558,-2.3596,-2.3645,-2.3661,-2.3706,-2.3746,-2.3806,-2.3831,-2.3866,-2.3865,-2.3874,-2.3877,-2.3878,-2.3878,-2.3829,-2.3874,-2.3874,-2.3874,-2.3874,-2.3874,0,-2.3351,-2.3381,-2.342,-2.3473,-2.3506,-2.3517,-2.3559,-2.3585,-2.3626,-2.3663,-2.3699,-2.3749,-2.379,-2.3826,-2.3869,-2.389,-2.3896,-2.39,-2.3898,-2.3903,-2.3876,-2.3866,-2.3894,-2.3894,-2.3894,-2.3894,-2.3894,-2.3894,-2.3372,-2.342,-2.344,-2.3503,-2.3532,-2.3578,-2.3601,-2.3632,-2.3662,-2.3718,-2.3753,-2.3777,-2.3814,-2.3859,-2.3897,-2.3907,-2.3921,-2.3923,-2.3933,-2.3907,-2.3905,-2.3903,-2.3893,-2.3926,-2.3926,-2.3957,-2.3957,-2.3958]}]]